Regional Weather Roundup
Issued by NWS

Home | Current Version | Previous Version | Graphics & Text | Print | Product List | Glossary On
Versions: 1 2 3 4 5 6 7 8 9 10 11 12 13 14 15 16 17 18 19 20 21 22 23 24 25 26 27 28 29 30 31 32 33 34 35 36 37 38 39 40 41 42 43 44 45 46 47 48 49 50
000
ASUS43 KLMK 220602
RWRKY
KENTUCKY REGIONAL WEATHER ROUNDUP
NATIONAL WEATHER SERVICE LOUISVILLE KY
100 AM EST MON DEC 22 2014

NOTE "FAIR" INDICATES FEW OR NO CLOUDS BELOW 12,000 FEET
WITH NO SIGNIFICANT WEATHER AND/OR OBSTRUCTIONS TO VISIBILITY.

KYZ001>023-026-027-061>063-070>075-220700-
WESTERN AND SOUTH CENTRAL KENTUCKY

CITY           SKY/WX    TMP DP  RH WIND       PRES   REMARKS
PADUCAH        CLOUDY    40  32  73 SE7       29.95F
HENDERSON      CLOUDY    34  27  75 E5        29.99F WCI  30
OWENSBORO      PTCLDY    35  28  76 SE6       30.01F WCI  30
HOPKINSVILLE   PTCLDY    38  31  77 E3        29.98F
BOWLING GREEN  CLEAR     36  28  73 NE3       30.00F
GLASGOW        NOT AVBL
$$

KYZ024-025-028>034-038-045-046-053-220700-
NORTH CENTRAL KENTUCKY

CITY           SKY/WX    TMP DP  RH WIND       PRES   REMARKS
LOUISVILLE/SDF CLOUDY    35  29  78 N3        30.05F
LOUISVILLE/LOU CLOUDY    36  28  73 NE5       30.06F WCI  32
FORT KNOX      CLOUDY    33  28  83 E7        30.01F WCI  27
$$

KYZ035>037-039>044-047>052-055>060-089>105-220700-
NORTHEAST KENTUCKY

CITY           SKY/WX    TMP DP  RH WIND       PRES   REMARKS
LEXINGTON      CLOUDY    35  27  72 SE9       30.06F WCI  28
COVINGTON      PTCLDY    29  22  75 E5        30.07F WCI  24
FRANKFORT      CLOUDY    30  25  81 E5        30.05F WCI  25
$$

KYZ054-064>069-076>088-106>120-220700-
SOUTHEAST KENTUCKY

CITY           SKY/WX    TMP DP  RH WIND       PRES   REMARKS
JACKSON        CLOUDY    37  26  64 E6        30.06F WCI  32
LONDON         CLOUDY    41  29  62 E3        30.05F
SOMERSET       NOT AVBL
MIDDLESBORO    NOT AVBL
MONTICELLO     CLEAR     32  28  85 CALM      30.07F
$$



USA.gov is the U.S. government's official web portal to all federal, state and local government web resources and services.